Regional Weather Roundup
Issued by NWS

Home | Current Version | Previous Version | Text Only | Print | Product List | Glossary Off
Versions: 1 2 3 4 5 6 7 8 9 10 11 12 13 14 15 16 17 18 19 20 21 22 23 24 25 26 27 28

000
ASUS45 KTFX 292310
RWRMT
MONTANA REGIONAL WEATHER ROUNDUP
NATIONAL WEATHER SERVICE GREAT FALLS MT
500 PM MDT FRI JUL 29 2016

NOTE: "FAIR" INDICATES FEW OR NO CLOUDS BELOW 12000 FEET WITH NO
SIGNIFICANT WEATHER AND/OR OBSTRUCTIONS TO VISIBILITY.

MTZ001>007-043-300000-
WEST OF THE DIVIDE

CITY           SKY/WX    TMP DP  RH WIND       PRES   REMARKS
KALISPELL      MOSUNNY   89  50  26 SE10      29.93F
MISSOULA       SUNNY     94  43  17 NE12      29.94F HX  90
BUTTE          MOSUNNY   86  37  17 N8        30.08F
MULLAN PASS    SUNNY     78  43  28 MISG      30.16F
ANACONDA         N/A     84  45  24 N7        30.05F
DEER LODGE       N/A     84  41  21 NE5       30.05F
EUREKA           N/A     91  45  19 SW10G23   29.90F
HAMILTON         N/A     88  48  25 NW9       29.95F
LIBBY            N/A     93  46  20 NW9       29.89F
PLAINS           N/A     97  47  18 SW3       29.90  HX  93
RONAN            N/A     89  49  25 CALM      30.00F
$$

MTZ008-052>055-300000-
SOUTHWEST MONTANA

CITY           SKY/WX    TMP DP  RH WIND       PRES   REMARKS
BOZEMAN        SUNNY     87  43  21 MISG      30.03F
DILLON         SUNNY     89  40  17 NE8       30.04F
W YELLOWSTONE  CLOUDY    82  32  16 NW8       30.15F
ENNIS          SUNNY     86  36  16 NW8       30.11F
THREE FORKS      N/A     88  88 100 CALM      30.01F HX 121
$$

MTZ009-010-012-014-046-048-049-054-300000-
EAST SLOPES AND CENTRAL MONTANA

CITY           SKY/WX    TMP DP  RH WIND       PRES   REMARKS
CUT BANK         N/A     80  49  33 N6        30.02F
GREAT FALLS    SUNNY     88  46  23 NE7       30.00F
MALMSTROM AFB  MOSUNNY   85  47  26 NE8G16    29.99F
HELENA         SUNNY     91  46  21 N9        29.96F
CHOTEAU          N/A     82  48  30 NE15G22   30.03F
CONRAD           N/A     84  52  33 N5        30.05F
$$

MTZ011-013-016-021-045-047-050-051-300000-
NORTH CENTRAL MONTANA

CITY           SKY/WX    TMP DP  RH WIND       PRES   REMARKS
HAVRE          PTSUNNY   87  50  27 VRB5      29.97F
LEWISTOWN      SUNNY     83  53  35 MISG      30.07S
N BAR RANCH    CLOUDY    77  50  38 E9        30.09S
CHINOOK          N/A     84  54  34 CALM      29.96F
$$

MTZ017>020-022>027-061-062-300000-
NORTHEAST MONTANA

CITY           SKY/WX    TMP DP  RH WIND       PRES   REMARKS
GLASGOW        SUNNY     81  55  40 E8        29.97F
JORDAN           N/A     82  55  39 E6        29.98F
SIDNEY         CLOUDY    79  35  20 N5        29.99F
WOLF POINT     CLOUDY    81  51  35 SE3       29.98F
PLENTYWOOD       N/A     75  55  50 E6        29.99F
POPLAR           N/A     79  46  31 SW3       29.99F
SCOBEY           N/A     76  51  41 SE1       30.00F
$$

MTZ028>42-056>058-300000-
SOUTHCENTRAL AND SOUTHEAST MONTANA

CITY           SKY/WX    TMP DP  RH WIND       PRES   REMARKS
BAKER          SUNNY     81  54  39 S3        30.01F
BILLINGS       MOSUNNY   87  49  26 NE14      30.00S
LIVINGSTON     SUNNY     87  41  19 VRB5      30.03F
MILES CITY     PTSUNNY   78  55  44 NE24G33   30.00R THUNDER
EKALAKA          N/A     79  48  33 CALM      30.02S
FORSYTH          N/A     84  52  32 N6        29.96F
LAUREL           N/A     88  48  24 NE3       29.98F
ROUNDUP          N/A     84  49  29 CALM      29.94S
$$

REGIONAL REPORTS...DAKOTAS

CITY           SKY/WX    TMP DP  RH WIND       PRES   REMARKS
WILLISTON      CLOUDY    80  47  31 CALM      29.98F
MINOT          MOSUNNY   83  55  38 SW7       29.98F
DICKINSON      MOSUNNY   78  52  40 S6        29.98F
CROSBY           N/A     77  52  41 S3        30.01S
WATFORD CITY     N/A    N/A N/A N/A MISG        N/A
BISMARCK       MOSUNNY   80  61  52 S10       29.99F
GRAND FORKS    PTSUNNY   79  53  40 CALM      30.00F
FARGO          PTSUNNY   80  58  46 W6        30.01F
BUFFALO SD       N/A     84  52  33 SW6       29.95F
RAPID CITY     CLOUDY    73  58  59 SW8       30.02F
$$

REGIONAL REPORTS...WYOMING/IDAHO/WASHINGTON

CITY           SKY/WX    TMP DP  RH WIND       PRES   REMARKS
GILLETTE       SUNNY     83  46  27 E6        30.04F
SHERIDAN       SUNNY     89  45  21 NW8       30.01F
BUFFALO WY     SUNNY     83  45  26 CALM      30.09F
CODY           SUNNY     81  46  30 NW7       30.07F
YELLOWSTONE LA   N/A     78  27  15 VRB5      30.25F
IDAHO FALLS    SUNNY     91  35  13 S7        30.01F
SALMON         SUNNY     91  39  16 CALM      29.91F
BOISE          SUNNY     99  38  12 N16G22    29.87F HX  94
SPOKANE        PTSUNNY   96  42  15 SW14      29.88F HX  92
$$

REGIONAL REPORTS...ALBERTA

CITY           SKY/WX    TMP DP  RH WIND       PRES   REMARKS
EDMONTON       MOSUNNY   81  52  36 CALM      29.87F
CALGARY        MOSUNNY   79  52  38 SE16G23   29.97F
LETHBRIDGE     MOSUNNY   81  50  34 SE9       29.97F
MEDICINE HAT   MOSUNNY   90  54  29 SW5       29.95F
WATERTON GATE    N/A     75  55  50 SE3         N/A
CARDSTON         N/A     84  52  32 SE5         N/A
MILK RIVER       N/A     81  50  34 N2          N/A
$$

REGIONAL REPORTS...SASKATCHEWAN

CITY           SKY/WX    TMP DP  RH WIND       PRES   REMARKS
SWIFT CURRENT  SUNNY     77  59  53 N9        29.97F
REGINA         MOSUNNY   79  59  50 SW9       29.95F
SASKATOON      PTSUNNY   77  61  57 S9        29.92F
VAL MARIE        N/A     81  52  36 SE2         N/A
ROCKGLEN         N/A     73  54  49 SW7         N/A
$$




USA.gov is the U.S. government's official web portal to all federal, state and local government web resources and services.